Location: Newark
(21.1200°N, 73.4000°E)
Time: 21:10:17
(UTC+00:00)

Altair - Visible Passes

Search period start: 26 January 2020 00:00
Search period end: 05 February 2020 00:00
Orbit: 1502 x 1682 km, 47.2° (Epoch: 26 January)

Date Brightness Start Highest point End Pass type
(mag) Time Alt. Az. Time Alt. Az. Time Alt. Az.
26 Jan 8.1 01:19:26 10° SSW 01:29:07 69° SE 01:39:08 10° NE visible
27 Jan 8.2 00:54:24 10° SSW 01:03:58 63° SE 01:13:51 10° NE visible
28 Jan 8.3 00:29:24 10° SSW 00:38:48 57° SE 00:48:32 10° NE visible
29 Jan 8.4 00:04:26 10° SSW 00:13:40 51° SE 00:23:12 10° ENE visible
29 Jan 8.5 23:39:31 10° SSW 23:48:32 45° SE 23:57:50 10° ENE visible
30 Jan 8.6 23:14:38 10° SSW 23:23:24 41° SE 23:32:26 10° ENE visible
31 Jan 7.8 01:18:31 10° WSW 01:27:58 54° NW 01:37:48 10° NE visible
31 Jan 8.7 22:50:08 11° S 22:58:17 36° SE 23:07:00 10° ENE visible
01 Feb 7.7 00:53:11 10° WSW 01:02:43 59° NW 01:12:38 10° NE visible
01 Feb 8.8 22:29:00 23° SSE 22:33:10 32° SE 22:41:30 10° ENE visible
02 Feb 7.6 00:27:54 10° WSW 00:37:29 64° NW 00:47:27 10° NE visible
02 Feb 8.9 22:07:09 28° SE 22:08:03 28° SE 22:15:58 10° ENE visible
03 Feb 7.5 00:05:19 22° WSW 00:12:15 70° NW 00:22:16 10° NE visible
03 Feb 9.1 21:44:51 23° ESE 21:44:51 23° ESE 21:50:22 10° ENE visible
03 Feb 7.4 23:42:58 41° WSW 23:47:03 77° NW 23:57:04 10° NE visible
04 Feb 9.5 21:22:13 16° E 21:22:13 16° E 21:24:40 10° E visible
04 Feb 7.4 23:20:20 68° WSW 23:21:51 83° NW 23:31:52 10° NE visible
